Flag for Austria Weather past 2 weeks in Rust, Burgenland, Austria

Now
73 °F

Mild.


Feels Like: 74 °F
Forecast: 61 / 84 °F
Wind: 5 mph from Northwest

Location: Eisenstadt

Current Time: Aug 1, 2014 at 2:11:43 PM

Latest Report: Aug 1, 2014 at 1:00 PM


Visibility: N/A

Pressure: 29.87 "Hg

Humidity: 74%

Dew point: 64 °F

Location of RustLocation

Historic Weather in Rust — Graph

°F

Rust temperature yesterday

Maximum temperature yesterday: 75 °F (at 2:00 PM)
Minimum temperature yesterday: 65 °F (at 3:00 AM)
Average temperature yesterday: 69 °F

Past Weeks' High & Low Weather Summary

 TemperatureHumidityPressure
High91 °F (Jul 20, 4:00 PM)97% (Jul 29, 6:00 AM)30.08 "Hg (Jul 29, 6:00 AM)
Low60 °F (Jul 26, 4:00 AM)32% (Jul 17, 5:00 PM)29.65 "Hg (Jul 21, 6:00 PM)
Average72 °F74%29.85 "Hg
* Reported Jul 17 12:00 Noon — Aug 1 12:00 Noon, Rust, Weather by CustomWeather, © 2014

Note: Actual official high and low records may vary slightly from our data, if they occured in-between our weather recording intervals... More about our weather records

Advertising

Rust weather history for previous 24 hours

 ConditionsComfort  
Time TempWeatherWind HumidityBarometerVisibility
12:00 PM
Aug 1
72 °FMild.6 mph76%29.88 "HgN/A
11:00 AM70 °FOvercast.5 mph79%29.88 "Hg9 mi
10:00 AM69 °FMild.7 mph80%29.88 "HgN/A
9:00 AM67 °FMild.6 mph83%29.87 "HgN/A
8:00 AM66 °FOvercast.6 mph89%29.87 "Hg9 mi
7:00 AM66 °FOvercast.5 mph88%29.86 "Hg9 mi
6:00 AM65 °FOvercast.6 mph89%29.87 "Hg9 mi
5:00 AM66 °FOvercast.7 mph86%29.86 "Hg9 mi
4:00 AM66 °FPassing clouds.7 mph86%29.87 "Hg9 mi
3:00 AM66 °FMild.8 mph87%29.87 "HgN/A
2:00 AM66 °FPassing clouds.8 mph87%29.87 "Hg7 mi
1:00 AM66 °FMild.8 mph86%29.87 "HgN/A
12:00 AM67 °FMild.8 mph86%29.88 "HgN/A
11:00 PM
Jul 31
67 °FPassing clouds.8 mph87%29.87 "Hg6 mi
10:00 PM68 °FMild.8 mph86%29.85 "HgN/A
9:00 PM68 °FMild.8 mph90%29.85 "HgN/A
8:00 PM70 °FScattered clouds.7 mph83%29.84 "Hg12 mi
7:00 PM71 °FPartly sunny.6 mph82%29.83 "Hg12 mi
6:00 PM72 °FMild.6 mph82%29.81 "HgN/A
5:00 PM73 °FPartly sunny.3 mph81%29.80 "Hg12 mi
4:00 PM75 °FMild.5 mph74%29.81 "HgN/A
3:00 PM74 °FMild.3 mph76%29.81 "HgN/A
2:00 PM75 °FMild.2 mph74%29.80 "HgN/A
Weather by CustomWeather, © 2014

See weather overviewHow to use our weather pages